YZ-1 R/B, 43650

Orbit data source: Space-Track

YZ-1 R/B, 43650 is space debris originally from a launch on Mon, 15 Oct 2018 UTC launched from the Xichang Space Center, China (XSC). Debris objects in space refer to the collection of defunct objects orbiting the Earth. Examples of debris include non-operational satellites, rocket bodies, and fragments generated from explosions, collisions, or faulty payload assembly.

Loading next visibility...
Identifier
43650, 2018-078D
Orbit
Active
Country
Flag of CNCN / PRC
Related business
Manufacturer
CALT
Mission
Spacecraft
Bus & Motor
YZ-1, Unknown motor
Mass
~2,075 kg wet, ~2,075 kg dry
Launch date (UTC)
2018-10-15 (7 years ago)
Launch vehicle
Unknown
Launch site
Xichang Space Center, China (XSC)
Object type
Payload
Rocket body
Debris
Shape & HBR
Double Cone, 2.0 m
Radar Cross Section
5.890 m², Large (>1 m²)

Expand to show TLE details & history
Last TLE update: 2 days ago

TLE from 2 days ago
0 YZ-1 R/B
1 43650U 18078D   25256.83107851 -.00000063  00000-0  00000-0 0  9995
2 43650  54.2688 317.6225 0106822  59.8343 301.2822  1.77586164 44854
Epoch: 2025-09-13T19:56Z
TLE epoch observation values (Epoch: 2025-09-13T19:56:45.183Z)
Latitude
-0.00001°
Longitude
25.39212°
Altitude
22,269.043 km
Speed
3.74 km/s
True Right ascension
21h 10m 33s
True Declination
0° 00' 00"
Sunlit
Object was in daylight at epoch
Visualization orbit readout
Latitude
Unknown
Longitude
Unknown
Altitude
Unknown
Speed
Unknown
Apparent Right ascension
Unknown
Apparent Declination
Unknown
Sunlit
N/A
Visualization observer readout
Local Sidereal Time
00:39:00
Azimuth
Unknown
Elevation
Unknown
Doppler factor
Unknown
Orbital elements
Apogee altitude
22,734.234 km
Perigee altitude
22,118.839 km
Semi-major axis
28,804.673 km
Eccentricity
0.01068
Inclination
54.2688°
RAAN
317.6225°
Arg. of periapsis
59.8343°
True anomaly
300.22883°
Mean anomaly
301.2822°
Eccentric anomaly
300.75624°
Mean motion
0.44397 °/min
Orbital period
810.87 mins
BSTAR
0
Loading maneuver chart data...
Computing Atmospheric mass density...
Loading historical data...
Loading historical data...
Loading historical data...
Loading historical data...
Loading historical data...
Loading historical data...
Loading historical data...
Other satellites on launch #78 in the year 2018 (2018-10-15 UTC)

Documentation

Showing up to 5 results
|